Flag Weather past 2 weeks in Santa Cruz de Tenerife, Canary Islands, Spain

Now
57 °F

Passing clouds.


Feels Like: 53 °F
Forecast: N/A
Wind: 18 mph from Northwest

Location: Tenerife / Los Rodeos

Current Time: Nov 27, 2014 at 8:48:48 PM

Latest Report: Nov 27, 2014 at 8:30 PM


Visibility: 6 mi

Pressure: 29.89 "Hg

Humidity: 94%

Dew point: 55 °F

Location of Santa Cruz de TenerifeLocation

Historic Weather in Santa Cruz de Tenerife — Graph

°F

Santa Cruz de Tenerife temperature yesterday

Maximum temperature yesterday: 61 °F (at 10:00 AM)
Minimum temperature yesterday: 55 °F (at 10:30 PM)
Average temperature yesterday: 58 °F

Past Weeks' High & Low Weather Summary

 TemperatureHumidityPressure
High68 °F (Nov 14, 12:30 PM)100% (Nov 14, 9:00 PM)30.30 "Hg (Nov 14, 9:00 PM)
Low50 °F (Nov 20, 11:04 PM)55% (Nov 20, 2:30 PM)29.65 "Hg (Nov 21, 6:00 AM)
Average60 °F89%30.02 "Hg
* Reported Nov 12 7:00 PM — Nov 27 7:30 PM, Santa Cruz de Tenerife, Weather by CustomWeather, © 2014

Note: Actual official high and low records may vary slightly from our data, if they occured in-between our weather recording intervals... More about our weather records

Advertising

Santa Cruz de Tenerife weather history for previous 24 hours

 ConditionsComfort  
Time TempWeatherWind HumidityBarometerVisibility
7:30 PM
Nov 27
57 °FPartly cloudy.20 mph94%29.89 "Hg5 mi
7:00 PM57 °FPartly cloudy.18 mph94%29.89 "Hg5 mi
6:30 PM55 °FPartly cloudy.17 mph100%29.89 "Hg5 mi
6:00 PM55 °FDrizzle. Broken clouds.21 mph100%29.89 "Hg5 mi
5:30 PM55 °FDrizzle. Broken clouds.22 mph100%29.92 "Hg4 mi
5:00 PM57 °FDrizzle. Broken clouds.20 mph94%29.92 "Hg4 mi
4:30 PM57 °FDrizzle. Broken clouds.18 mph94%29.92 "Hg4 mi
4:00 PM57 °FDrizzle. Broken clouds.23 mph94%29.92 "Hg4 mi
3:30 PM57 °FBroken clouds.18 mph94%29.92 "HgN/A
3:00 PM57 °FDrizzle. Broken clouds.20 mph94%29.95 "Hg5 mi
2:30 PM59 °FDrizzle. Broken clouds.18 mph88%29.92 "Hg5 mi
2:00 PM55 °FDrizzle. Broken clouds.22 mph100%29.95 "Hg5 mi
1:30 PM57 °FDrizzle. Fog.18 mph94%29.98 "Hg4 mi
1:00 PM55 °FDrizzle. Partly sunny.21 mph100%29.98 "Hg2 mi
12:30 PM59 °FFog.16 mph82%30.01 "HgN/A
12:00 PM59 °FScattered clouds.15 mph82%30.01 "HgN/A
11:30 AM57 °FPartly sunny.16 mph94%30.04 "HgN/A
11:00 AM57 °FDrizzle. Partly sunny.15 mph88%30.04 "Hg5 mi
10:30 AM55 °FDrizzle. Partly sunny.17 mph94%30.04 "Hg6 mi
10:00 AM55 °FPartly sunny.18 mph94%30.04 "HgN/A
9:30 AM55 °FFog.17 mph100%30.04 "Hg6 mi
9:00 AM55 °FLight rain. Partly sunny.22 mph100%30.01 "Hg4 mi
8:30 AM55 °FDrizzle. Partly sunny.20 mph94%30.01 "Hg6 mi
8:00 AM55 °FPartly sunny.20 mph94%30.01 "HgN/A
7:30 AM55 °FPassing clouds.22 mph94%30.01 "HgN/A
7:00 AM55 °FPassing clouds.24 mph94%30.01 "Hg2 mi
6:46 AM55 °FDrizzle. Fog.26 mph100%30.01 "Hg1 mi
6:30 AM55 °FPassing clouds.26 mph94%29.98 "Hg6 mi
6:00 AM54 °FRain. Fog.30 mph100%30.01 "Hg1 mi
11:00 PM
Nov 26
55 °FPassing clouds.22 mph88%30.09 "HgN/A
10:30 PM55 °FPassing clouds.24 mph94%30.09 "HgN/A
10:00 PM57 °FPassing clouds.26 mph88%30.09 "HgN/A
9:30 PM57 °FPassing clouds.30 mph88%30.09 "HgN/A
9:00 PM57 °FPassing clouds.26 mph94%30.09 "HgN/A
8:30 PM57 °FPassing clouds.24 mph100%30.09 "Hg4 mi
8:00 PM57 °FPassing clouds.25 mph100%30.09 "Hg3 mi
Weather by CustomWeather, © 2014

See weather overviewHow to use our weather pages